Regional Weather Roundup
Issued by NWS

Home | Current Version | Previous Version | Graphics & Text | Print | Product List | Glossary On
Versions: 1 2 3 4 5 6 7 8 9 10 11 12 13 14 15 16 17 18 19 20 21 22 23 24 25 26 27 28 29 30 31 32 33 34 35 36 37 38 39 40 41 42 43 44 45 46 47 48 49 50
000
ASUS43 KLOT 211603
RWRIL

ILLINOIS REGIONAL WEATHER ROUNDUP
NATIONAL WEATHER SERVICE CHICAGO/ROMEOVILLE IL
1000 AM CST TUE NOV 21 2017

NOTE: "FAIR" INDICATES FEW OR NO CLOUDS BELOW 12,000 FEET WITH NO
SIGNIFICANT WEATHER AND/OR OBSTRUCTIONS TO VISIBILITY.

* THESE STATIONS ARE NOT UNDER NWS QUALITY CONTROL. THEY ALSO MAY NOT
  REPORT WEATHER SUCH AS PRECIPITATION OR FOG.

ILZ001-002-007-009-015-016-024-211700-
NORTHWEST ILLINOIS

CITY           SKY/WX    TMP DP  RH WIND       PRES   REMARKS
MOLINE         CLOUDY    40  24  53 NW17G26   29.91R
STERLING*      CLOUDY    39  21  48 NW17G24   29.87R WCI  30
SAVANNA*       CLOUDY    37  20  49 W20G25    29.88R WCI  26
$$

ILZ003-004-008-010-011-017-018-211700-
NORTH CENTRAL ILLINOIS

CITY           SKY/WX    TMP DP  RH WIND       PRES   REMARKS
ROCKFORD       CLOUDY    39  16  39 NW23G31   29.84R WCI  28
FREEPORT*      PTSUNNY   36  18  48 W28G35    29.86R WCI  23
ROCHELLE*      CLOUDY    39  22  49 NW20      29.85R WCI  30
DE KALB*       CLOUDY    38  23  53 W24G33    29.83R WCI  27
PERU*          RAIN      38  30  74 NW15G23   29.87R WCI  29
$$

ILZ005-006-012>014-019>023-211700-
NORTHEAST ILLINOIS

CITY           SKY/WX    TMP DP  RH WIND       PRES   REMARKS
CHICAGO-OHARE  LGT RAIN  42  31  64 W10G22    29.79R
CHICAGO-MIDWAY NOT AVBL
AURORA         LGT RAIN  40  36  86 W12       29.83R
LANSING*       PTSUNNY   44  36  73 W16G22    29.81R
JOLIET*        RAIN      43  37  80 W8        29.84R
WAUKEGAN       CLOUDY    45  28  51 W10G18    29.75R
DUPAGE AIRPORT LGT RAIN  40  31  70 W15G23    29.80R
KANKAKEE*      CLOUDY    44  34  67 W14       29.83S
WHEELING       CLOUDY    43  35  73 W10G20    29.79R
MORRIS*        LGT RAIN  42  35  78 W20G26    29.83R
ROMEOVILLE*    RAIN      41  36  81 W15G22    29.83R
NORTHERLY ISL    N/A     43  32  65 SW12        N/A
$$

LMZ740>746-211700-
SOUTHERN LAKE MICHIGAN

STATION/POSITION SKY/WX   TEMP    WIND        PRES    VSBY  WAVE
                          AIR SEA DIR/SP/G                  HT/PER
                          (F)     (DEG/KT/KT) (MB)    (MI)  (FT/S)
SOUTHERN BUOY              46 48  280/ 21/ 25 1005.6          6/ 6
HARRISON CRIB              45     260/ 23/ 26   N/A
BURNHAM HARBOR             43     270/  8/ 14   N/A
CALUMET HARBOR             44     230/ 11/ 17 1007.8R
BURNS HARBOR               44     220/ 14/ 19 1008.8R
MICHIGAN CITY              44     210/ 20/ 23   N/A
$$

ILZ025>027-034>036-040-047-049-050-058-095>099-211700-
WEST-CENTRAL ILLINOIS

CITY           SKY/WX    TMP DP  RH WIND       PRES   REMARKS
QUINCY         PTSUNNY   47  29  49 N15       29.93R
GALESBURG*     CLOUDY    41  28  60 NW16G23   29.91R
MACOMB*        CLOUDY    42  28  56 NW23G30   29.93R
JACKSONVILLE*  PTSUNNY   47  35  62 W8        29.91R
PITTSFIELD*    CLOUDY    49  34  56 NW15G22   29.92R
$$

ILZ028>032-037-038-041>044-048-051>054-059>061-211700-
CENTRAL ILLINOIS

CITY           SKY/WX    TMP DP  RH WIND       PRES   REMARKS
PONTIAC        CLOUDY    45  35  69 W17       29.86R
BLOOMINGTON    CLOUDY    45  34  65 W14       29.86R
DECATUR        CLOUDY    49  34  56 SW13      29.89R
PEORIA         CLOUDY    46  29  51 NW12G24   29.88R
LACON*         DRIZZLE   41  24  50 NW16G28   29.88R
LINCOLN*       CLOUDY    48  35  60 W7        29.88R
SPRINGFIELD    MOSUNNY   49  35  58 W13       29.90R
TAYLORVILLE    MOSUNNY   47  35  62 SW8       29.91R
$$

ILZ033-039-045-046-055>057-062-063-211700-
EAST-CENTRAL ILLINOIS

CITY           SKY/WX    TMP DP  RH WIND       PRES   REMARKS
CHAMPAIGN      MOSUNNY   47  35  63 SW22      29.88R
DANVILLE*      PTSUNNY   47  34  59 SW16      29.85R
RANTOUL*       PTSUNNY   49  37  63 W17G25    29.86R
MATTOON        SUNNY     47  33  58 SW14G21   29.89R
PARIS*         SUNNY     48  36  62 SW20      29.90R
$$

ILZ079-100>102-211700-
SOUTHWEST ILLINOIS

CITY           SKY/WX    TMP DP  RH WIND       PRES   REMARKS
ALTON          CLOUDY    48  36  61 SW8       29.93R
BELLEVILLE     MOSUNNY   48  33  56 W9        29.93R
CAHOKIA*       PTSUNNY   50  31  48 S6        29.94R
SPARTA*        MOSUNNY   44  32  61 S9        29.96R
$$

ILZ064>066-069>071-074>076-080>082-084>086-088>090-092>094-211700-
SOUTH-CENTRAL ILLINOIS

CITY           SKY/WX    TMP DP  RH WIND       PRES   REMARKS
CARBONDALE     MOSUNNY   50  34  54 SW10      29.98R
CAIRO*         MOSUNNY   48  34  56 S10       30.02S
EFFINGHAM*     MOSUNNY   49  35  57 S10       29.94S
MARION         MOSUNNY   50  34  53 S12       29.98S
MT. VERNON     MOSUNNY   50  35  56 SW15      29.96R
CENTRALIA*     MOSUNNY   49  35  58 SW12      29.95R
SALEM*         CLOUDY    51  33  50 SW15      29.94R
METROPOLIS*    SUNNY     51  33  48 SW14      30.02S
$$

ILZ067-068-072-073-078-083-087-091-211700-
SOUTHEAST ILLINOIS

CITY           SKY/WX    TMP DP  RH WIND       PRES   REMARKS
LAWRENCEVILLE  SUNNY     50  33  52 SW20      29.96R
FLORA*         SUNNY     51  35  54 SW15      29.94S
FAIRFIELD*     SUNNY     50  33  52 S6        29.95R
HARRISBURG*    SUNNY     50  34  54 SW12G24   29.99S
ROBINSON*      SUNNY     49  32  52 SW16G23   29.94R
CARMI*         SUNNY     51  33  50 SW12      29.97S
$$

ABBREVIATIONS USED IN REMARKS
   TC - TEMPERATURE IN CELSIUS
  WCI - WIND CHILL INDEX
   HX - HEAT INDEX
  VSB - VISIBILITY
$$





USA.gov is the U.S. government's official web portal to all federal, state and local government web resources and services.